When you browse on this site, cookies collect data to enhance your experience and personalize the content and advertising you see.
Visit our Privacy Policy to learn more. By continuing to use the site, you agree to this use of cookies and data.
  • In Latvia
  • List of Countries
  • For 7 days
  • Water Temperature
  • Satellite Maps
  • Weather Map
  • Weather Widgets
  • user-avatar
    Login

    Hourly Weather Preili

    Today, 21 June, Friday

    Time Temperature Precipitation Wind Pressure Humidity
    00:00 +20°C° 0.3 mm 2 mps 747 mmHg 89%
    01:00 +20°C° 0.3 mm 2 mps 747 mmHg 92%
    02:00 +19°C° 0.3 mm 2 mps 747 mmHg 94%
    03:00 +19°C° 0.1 mm 2 mps 747 mmHg 95%
    04:00 +19°C° 0.1 mm 2 mps 747 mmHg 96%
    05:00 +19°C° 0.1 mm 2 mps 747 mmHg 96%
    06:00 +20°C° 0 mm 2 mps 747 mmHg 94%
    07:00 +21°C° 0 mm 2 mps 747 mmHg 91%
    08:00 +23°C° 0 mm 2 mps 748 mmHg 88%
    09:00 +24°C° 1.3 mm 2 mps 747 mmHg 86%
    10:00 +25°C° 1.3 mm 2 mps 747 mmHg 83%
    11:00 +26°C° 1.3 mm 2 mps 747 mmHg 81%
    12:00 +27°C° 1 mm 2 mps 747 mmHg 76%
    13:00 +27°C° 1 mm 2 mps 747 mmHg 72%
    14:00 +28°C° 1 mm 2 mps 747 mmHg 67%
    15:00 +28°C° 0.4 mm 2 mps 747 mmHg 67%
    16:00 +28°C° 0.4 mm 2 mps 747 mmHg 67%
    17:00 +28°C° 0.4 mm 2 mps 747 mmHg 67%
    18:00 +26°C° 0.2 mm 2 mps 747 mmHg 74%
    19:00 +25°C° 0.2 mm 2 mps 748 mmHg 81%
    20:00 +23°C° 0.2 mm 2 mps 748 mmHg 88%
    21:00 +21°C° 0 mm 2 mps 748 mmHg 90%
    22:00 +21°C° 0 mm 1 mps 748 mmHg 92%
    23:00 +20°C° 0 mm 1 mps 749 mmHg 94%

    Tomorrow, 22 June, Saturday

    Time Temperature Precipitation Wind Pressure Humidity
    00:00 +19°C° 0 mm 1 mps 749 mmHg 95%
    01:00 +19°C° 0 mm 1 mps 749 mmHg 96%
    02:00 +18°C° 0 mm 1 mps 749 mmHg 96%
    03:00 +18°C° 0 mm 1 mps 750 mmHg 96%
    04:00 +18°C° 0 mm 1 mps 750 mmHg 95%
    05:00 +18°C° 0 mm 1 mps 750 mmHg 94%
    06:00 +19°C° 0 mm 1 mps 750 mmHg 89%
    07:00 +19°C° 0 mm 2 mps 751 mmHg 83%
    08:00 +20°C° 0 mm 2 mps 751 mmHg 78%
    09:00 +23°C° 0 mm 2 mps 751 mmHg 72%
    10:00 +24°C° 0 mm 3 mps 751 mmHg 66%
    11:00 +25°C° 0 mm 3 mps 751 mmHg 60%
    12:00 +26°C° 0 mm 3 mps 752 mmHg 56%
    13:00 +26°C° 0 mm 3 mps 752 mmHg 52%
    14:00 +26°C° 0 mm 4 mps 752 mmHg 48%
    15:00 +26°C° 0 mm 4 mps 752 mmHg 50%
    16:00 +25°C° 0 mm 4 mps 752 mmHg 52%
    17:00 +23°C° 0 mm 4 mps 752 mmHg 53%
    18:00 +21°C° 0 mm 4 mps 753 mmHg 58%
    19:00 +19°C° 0 mm 3 mps 753 mmHg 62%
    20:00 +17°C° 0 mm 3 mps 753 mmHg 66%
    21:00 +14°C° 0 mm 3 mps 754 mmHg 68%
    22:00 +14°C° 0 mm 2 mps 754 mmHg 69%
    23:00 +12°C° 0 mm 2 mps 755 mmHg 70%

    Day after tomorrow, 23 June, Sunday

    Time Temperature Precipitation Wind Pressure Humidity
    00:00 +10°C° 0 mm 2 mps 755 mmHg 75%
    01:00 +9°C° 0 mm 2 mps 755 mmHg 80%
    02:00 +8°C° 0 mm 2 mps 756 mmHg 85%
    03:00 +9°C° 0 mm 2 mps 756 mmHg 86%
    04:00 +9°C° 0 mm 2 mps 756 mmHg 87%
    05:00 +9°C° 0 mm 2 mps 756 mmHg 88%
    06:00 +12°C° 0 mm 2 mps 757 mmHg 81%
    07:00 +14°C° 0 mm 2 mps 757 mmHg 74%
    08:00 +16°C° 0 mm 2 mps 757 mmHg 67%
    09:00 +17°C° 0 mm 2 mps 757 mmHg 61%
    10:00 +19°C° 0 mm 2 mps 757 mmHg 56%
    11:00 +20°C° 0 mm 2 mps 757 mmHg 50%
    12:00 +21°C° 0 mm 2 mps 757 mmHg 47%
    13:00 +23°C° 0 mm 2 mps 757 mmHg 45%
    14:00 +24°C° 0 mm 2 mps 757 mmHg 42%
    15:00 +24°C° 0 mm 2 mps 757 mmHg 43%
    16:00 +24°C° 0 mm 2 mps 757 mmHg 44%
    17:00 +24°C° 0 mm 2 mps 757 mmHg 46%
    18:00 +21°C° 0 mm 2 mps 757 mmHg 54%
    19:00 +20°C° 0 mm 2 mps 757 mmHg 63%
    20:00 +18°C° 0 mm 2 mps 757 mmHg 71%
    21:00 +17°C° 0 mm 2 mps 758 mmHg 71%
    22:00 +15°C° 0 mm 2 mps 758 mmHg 71%
    23:00 +14°C° 0 mm 2 mps 759 mmHg 71%

    24 June, Monday

    Time Temperature Precipitation Wind Pressure Humidity
    00:00 +13°C° 0 mm 2 mps 759 mmHg 69%
    01:00 +13°C° 0 mm 2 mps 759 mmHg 66%
    02:00 +12°C° 0 mm 1 mps 759 mmHg 64%
    03:00 +12°C° 0 mm 1 mps 759 mmHg 67%
    04:00 +12°C° 0 mm 2 mps 760 mmHg 69%
    05:00 +12°C° 0 mm 2 mps 760 mmHg 72%
    06:00 +14°C° 0 mm 2 mps 760 mmHg 68%
    07:00 +16°C° 0 mm 1 mps 760 mmHg 64%
    08:00 +19°C° 0 mm 1 mps 761 mmHg 60%
    09:00 +21°C° 0 mm 1 mps 761 mmHg 55%
    10:00 +22°C° 0 mm 1 mps 761 mmHg 51%
    11:00 +24°C° 0 mm 1 mps 761 mmHg 46%
    12:00 +24°C° 0 mm 2 mps 761 mmHg 45%
    13:00 +25°C° 0 mm 2 mps 760 mmHg 45%
    14:00 +25°C° 0 mm 2 mps 760 mmHg 44%
    15:00 +25°C° 0 mm 2 mps 760 mmHg 46%
    16:00 +25°C° 0 mm 1 mps 760 mmHg 47%
    17:00 +24°C° 0 mm 1 mps 760 mmHg 49%
    18:00 +23°C° 0 mm 1 mps 760 mmHg 55%
    19:00 +21°C° 0 mm 1 mps 760 mmHg 61%
    20:00 +18°C° 0 mm 0 mps 760 mmHg 67%
    21:00 +16°C° 0 mm 0 mps 760 mmHg 71%
    22:00 +15°C° 0 mm 0 mps 760 mmHg 74%
    23:00 +13°C° 0 mm 0 mps 761 mmHg 77%

    25 June, Tuesday

    Time Temperature Precipitation Wind Pressure Humidity
    00:00 +13°C° 0 mm 0 mps 761 mmHg 78%
    01:00 +13°C° 0 mm 0 mps 761 mmHg 79%
    02:00 +12°C° 0 mm 0 mps 761 mmHg 80%
    03:00 +13°C° 0 mm 0 mps 761 mmHg 81%
    04:00 +14°C° 0 mm 1 mps 761 mmHg 83%
    05:00 +14°C° 0 mm 1 mps 761 mmHg 84%
    06:00 +16°C° 0 mm 1 mps 761 mmHg 78%
    07:00 +18°C° 0 mm 1 mps 761 mmHg 71%
    08:00 +20°C° 0 mm 1 mps 761 mmHg 65%
    09:00 +21°C° 0 mm 1 mps 761 mmHg 60%
    10:00 +21°C° 0 mm 2 mps 761 mmHg 54%
    11:00 +24°C° 0 mm 2 mps 761 mmHg 49%
    12:00 +24°C° 0 mm 2 mps 761 mmHg 46%
    13:00 +25°C° 0 mm 2 mps 760 mmHg 43%
    14:00 +25°C° 0 mm 2 mps 760 mmHg 40%
    15:00 +25°C° 0 mm 2 mps 760 mmHg 43%
    16:00 +25°C° 0 mm 2 mps 760 mmHg 46%
    17:00 +24°C° 0 mm 2 mps 759 mmHg 49%
    18:00 +23°C° 0 mm 2 mps 759 mmHg 55%
    19:00 +20°C° 0 mm 2 mps 759 mmHg 62%
    20:00 +19°C° 0 mm 2 mps 759 mmHg 68%
    21:00 +18°C° 0 mm 3 mps 759 mmHg 67%
    22:00 +17°C° 0 mm 3 mps 759 mmHg 67%
    23:00 +16°C° 0 mm 3 mps 759 mmHg 66%

    26 June, Wednesday

    Time Temperature Precipitation Wind Pressure Humidity
    00:00 +14°C° 0 mm 3 mps 759 mmHg 68%
    01:00 +14°C° 0 mm 2 mps 759 mmHg 69%
    02:00 +12°C° 0 mm 2 mps 759 mmHg 71%
    03:00 +10°C° 0 mm 2 mps 759 mmHg 73%
    04:00 +10°C° 0 mm 2 mps 759 mmHg 75%
    05:00 +9°C° 0 mm 2 mps 759 mmHg 77%
    06:00 +12°C° 0 mm 2 mps 759 mmHg 72%
    07:00 +14°C° 0 mm 2 mps 758 mmHg 68%
    08:00 +16°C° 0 mm 2 mps 758 mmHg 63%
    09:00 +18°C° 0 mm 3 mps 758 mmHg 58%
    10:00 +19°C° 0 mm 3 mps 758 mmHg 53%
    11:00 +21°C° 0 mm 4 mps 758 mmHg 48%
    12:00 +21°C° 0 mm 3 mps 757 mmHg 48%
    13:00 +22°C° 0 mm 3 mps 757 mmHg 47%
    14:00 +22°C° 0 mm 3 mps 757 mmHg 47%
    15:00 +22°C° 0 mm 3 mps 756 mmHg 50%
    16:00 +22°C° 0 mm 3 mps 756 mmHg 53%
    17:00 +21°C° 0 mm 2 mps 756 mmHg 56%
    18:00 +20°C° 0 mm 2 mps 755 mmHg 63%
    19:00 +19°C° 0 mm 2 mps 755 mmHg 70%
    20:00 +17°C° 0 mm 2 mps 755 mmHg 76%
    21:00 +16°C° 0 mm 2 mps 755 mmHg 80%
    22:00 +15°C° 0 mm 2 mps 755 mmHg 84%
    23:00 +14°C° 0 mm 2 mps 755 mmHg 88%
    Show more